Content
SEND FEEDBACK

Daily
Averages
Monthly
Summary
United States of America

PINELLAS PARK, FLORIDA


Home > North America > United States > Florida
Elevation: 0 feet     Latitude: 27 46N     Longitude: 082 38W

WEATHER
 
SELECT A DAY
Number of Records: 190,135;   Date Range: 1/1/95 - 8/12/14
 
SHARE

PRINT THIS DATA

[ ← Previous Day ]
WEATHER ALMANAC - FEBRUARY 13, 2013
[ Next Day → ]
[ °C ]   °F
Weather ElementAverageHighLow
Temperature71.2 °F77 °F (1:40 pm)63 °F (7:27 pm)
Dewpoint68.1 °F71.1 °F (11:06 am)55 °F (8:53 pm)
Humidity90 %100 % (6:53 am)68 % (10:53 pm)
Barometer29.92 in29.99 in (10:53 pm)29.86 in (3:53 pm)
Wind Speed13.2 mph18.4 mph (12:53 pm)
Wind Gust32.2 mph (7:14 pm)
Weather ElementAverage
Visibility8.2 mi
Wind DirectionSW (221.5 °)

Weather ElementTotal
Precipitation0.10 in
Cooling Degree Days5 (Base 65)
Growing Degree Days20 (Base 50)
Averaged from 46 records on February 13, 2013
WEATHER CONDITIONS BREAKOUT
WIND DIRECTION BREAKOUT
WEATHER BY HOUR - FEBRUARY 13, 2013
[ °C ]   °F
Local TimeTemperatureDewpointHumidityBarometerVisibilityWind DirectionWind SpeedGust SpeedPrecipitationEventsConditions
12:53 AM71.1 °F69.1 °F93 %29.96 in9.0 miSW (230°)8.1 mphOvercast
1:39 AM71.1 °F69.1 °F93 %29.95 in8.0 miSW (220°)9.2 mphOvercast
1:53 AM70.0 °F69.1 °F97 %29.95 in8.0 miSW (230°)9.2 mphMostly Cloudy
2:53 AM70.0 °F69.1 °F97 %29.94 in8.0 miSW (220°)8.1 mphPartly Cloudy
3:53 AM70.0 °F69.1 °F97 %29.92 in9.0 miSW (220°)12.7 mphClear
4:53 AM70.0 °F69.1 °F97 %29.92 in9.0 miSSW (210°)11.5 mphMostly Cloudy
5:10 AM70.0 °F69.1 °F97 %29.92 in9.0 miSW (220°)9.2 mphOvercast
5:27 AM70.0 °F69.1 °F97 %29.91 in9.0 miSSW (210°)11.5 mphOvercast
5:41 AM70.0 °F69.1 °F97 %29.91 in9.0 miSSW (210°)10.4 mphOvercast
5:53 AM70.0 °F69.1 °F97 %29.91 in9.0 miSSW (210°)11.5 mphOvercast
6:53 AM70.0 °F70.0 °F100 %29.93 in3.0 miSW (220°)11.5 mphOvercast
6:57 AM70.0 °F70.0 °F100 %29.93 in1.8 miSW (220°)11.5 mphOvercast
7:19 AM70.0 °F70.0 °F100 %29.93 in3.0 miSW (220°)10.4 mphOvercast
7:53 AM70.0 °F70.0 °F100 %29.94 in6.0 miSW (220°)9.2 mphOvercast
8:14 AM70.0 °F69.1 °F97 %29.95 in7.0 miSW (230°)9.2 mphOvercast
8:53 AM71.1 °F69.1 °F93 %29.96 in7.0 miSW (230°)11.5 mph19.6 mphOvercast
9:11 AM71.1 °F70.0 °F96 %29.96 in7.0 miSW (220°)12.7 mphOvercast
9:34 AM72.0 °F70.0 °F93 %29.96 in8.0 miSSW (210°)13.8 mph24.2 mphOvercast
9:53 AM72.0 °F70.0 °F93 %29.96 in10.0 miSW (220°)13.8 mphOvercast
10:13 AM72.0 °F70.0 °F93 %29.96 in9.0 miSSW (210°)13.8 mph23.0 mphOvercast
10:53 AM72.0 °F70.0 °F93 %29.95 in4.0 miSSW (210°)16.1 mph23.0 mphOvercast
11:06 AM72.0 °F71.1 °F97 %29.94 in5.0 miSSW (210°)17.3 mph23.0 mphOvercast
11:50 AM73.4 °F69.8 °F88 %29.93 in10.0 miSW (220°)15.0 mph23.0 mphOvercast
11:53 AM73.9 °F71.1 °F91 %29.94 in10.0 miSW (230°)16.1 mph24.2 mphOvercast
12:02 PM73.9 °F71.1 °F91 %29.93 in10.0 miSW (230°)16.1 mph26.5 mphMostly Cloudy
12:38 PM75.0 °F70.0 °F84 %29.92 in10.0 miSW (230°)15.0 mph21.9 mphScattered Clouds
12:53 PM75.0 °F70.0 °F84 %29.91 in10.0 miSW (230°)18.4 mph26.5 mphScattered Clouds
1:40 PM77.0 °F70.0 °F79 %29.89 in10.0 miWSW (240°)17.3 mph26.5 mphMostly Cloudy
1:48 PM77.0 °F69.8 °F78 %29.89 in10.0 miWSW (240°)17.3 mph26.5 mphScattered Clouds
1:53 PM77.0 °F70.0 °F79 %29.88 in10.0 miWSW (240°)18.4 mph27.6 mphScattered Clouds
2:53 PM75.9 °F70.0 °F82 %29.88 in10.0 miSW (230°)15.0 mphMostly Cloudy
3:25 PM75.0 °F70.0 °F84 %29.87 in10.0 miSW (230°)18.4 mphOvercast
3:53 PM75.0 °F71.1 °F87 %29.86 in9.0 miSW (220°)16.1 mph26.5 mphOvercast
4:27 PM75.0 °F71.1 °F87 %29.86 in9.0 miSW (230°)17.3 mph24.2 mphOvercast
4:53 PM75.0 °F71.1 °F87 %29.86 in9.0 miWSW (240°)13.8 mph20.7 mphOvercast
5:53 PM73.9 °F71.1 °F91 %29.86 in8.0 miSW (230°)16.1 mph24.2 mphOvercast
6:20 PM73.0 °F71.1 °F93 %29.87 in8.0 miSW (230°)13.8 mphOvercast
6:36 PM73.0 °F71.1 °F93 %29.87 in8.0 miWSW (240°)15.0 mphOvercast
6:53 PM73.0 °F71.1 °F93 %29.88 in9.0 miWSW (240°)11.5 mphOvercast
7:14 PM66.0 °F63.0 °F90 %29.92 in9.0 miNorth (360°)16.1 mph32.2 mphOvercast
7:27 PM63.0 °F59.0 °F87 %29.95 in3.0 miNNW (340°)18.4 mph26.5 mph0.03 inRainRain
7:53 PM64.0 °F59.0 °F84 %29.94 in10.0 miNorth (350°)13.8 mph0.07 inOvercast
8:53 PM64.0 °F55.0 °F73 %29.96 in10.0 miNorth (10°)9.2 mphOvercast
9:53 PM64.9 °F55.9 °F73 %29.97 in10.0 miNNE (20°)6.9 mphOvercast
10:53 PM66.0 °F55.0 °F68 %29.99 in10.0 miNorth (350°)12.7 mphOvercast
11:53 PM63.0 °F55.9 °F78 %29.99 in9.0 miNorth (10°)5.8 mph0.00 inRainLight Rain
Hourly data recorded from KSPG, located miles away from Pinellas Park, Florida







STORIES FROM OUR PARTNERS